,,,PA_Meas_PMT16A,,PR_Meas_QMR101_102,,RH_Meas_QMH101,,SR_Meas_QMS101,,TA_Meas_QMH101,,GenWind,,GenWind,
date,time,status,PA,status,PR,status,RH,status,SR,status,TA,status,DirAvg,status,SpdAvg,
2010-02-23, 00:00:04,VALID,1003.03,VALID,0,VALID,91.2884,VALID,0,VALID,23.35,VALID,127,VALID,0,
2010-02-23, 00:01:04,VALID,1003.04,VALID,0,VALID,91.4486,VALID,0,VALID,23.35,VALID,100,VALID,0,
2010-02-23, 00:02:04,VALID,1002.99,VALID,0,VALID,91.4486,VALID,0,VALID,23.35,VALID,104,VALID,0,
2010-02-23, 00:03:04,VALID,1002.95,VALID,0,VALID,91.4563,VALID,0,VALID,23.35,VALID,105,VALID,0.979297,
2010-02-23, 00:04:04,VALID,1002.94,VALID,0,VALID,91.4334,VALID,0,VALID,23.311,VALID,110,VALID,1.02539,
2010-02-23, 00:05:04,VALID,1002.88,VALID,0,VALID,91.4486,VALID,0,VALID,23.3127,VALID,106,VALID,0.703516,
2010-02-23, 00:06:04,VALID,1002.84,VALID,0,VALID,91.586,VALID,0,VALID,23.3323,VALID,105,VALID,0.415234,
2010-02-23, 00:07:04,VALID,1002.85,VALID,0,VALID,91.5554,VALID,0,VALID,23.3518,VALID,106,VALID,0,
2010-02-23, 00:08:04,VALID,1002.83,VALID,0,VALID,91.647,VALID,0,VALID,23.3305,VALID,105,VALID,0,
2010-02-23, 00:09:04,VALID,1002.81,VALID,0,VALID,91.6699,VALID,0,VALID,23.3305,VALID,105,VALID,0,
2010-02-23, 00:10:04,VALID,1002.76,VALID,0,VALID,91.5936,VALID,0,VALID,23.3305,VALID,105,VALID,0,
2010-02-23, 00:11:04,VALID,1002.74,VALID,0,VALID,91.6165,VALID,0,VALID,23.311,VALID,105,VALID,0,
2010-02-23, 00:12:04,VALID,1002.69,VALID,0,VALID,91.5631,VALID,0,VALID,23.311,VALID,98,VALID,0.371484,
2010-02-23, 00:13:04,VALID,1002.69,VALID,0,VALID,91.5936,VALID,0,VALID,23.2915,VALID,98,VALID,0.516406,
2010-02-23, 00:14:04,VALID,1002.69,VALID,0,VALID,91.7004,VALID,0,VALID,23.2915,VALID,93,VALID,0.860156,
2010-02-23, 00:15:04,VALID,1002.66,VALID,0,VALID,91.5783,VALID,0,VALID,23.2719,VALID,94,VALID,0.666797,
2010-02-23, 00:16:04,VALID,1002.64,VALID,0,VALID,91.6394,VALID,0,VALID,23.2524,VALID,94,VALID,0.725,
2010-02-23, 00:17:04,VALID,1002.65,VALID,0,VALID,91.5402,VALID,0,VALID,23.2524,VALID,94,VALID,0.61875,
2010-02-23, 00:18:04,VALID,1002.63,VALID,0,VALID,91.4868,VALID,0,VALID,23.2542,VALID,94,VALID,0.666797,
2010-02-23, 00:19:04,VALID,1002.62,VALID,0,VALID,91.4563,VALID,0,VALID,23.2347,VALID,94,VALID,0.578516,
2010-02-23, 00:20:04,VALID,1002.61,VALID,0,VALID,91.5249,VALID,0,VALID,23.2347,VALID,94,VALID,0.704687,
2010-02-23, 00:21:04,VALID,1002.59,VALID,0,VALID,91.441,VALID,0,VALID,23.1939,VALID,94,VALID,0.604688,
2010-02-23, 00:22:04,VALID,1002.53,VALID,0,VALID,91.4181,VALID,0,VALID,23.1939,VALID,94,VALID,0.492188,
2010-02-23, 00:23:04,VALID,1002.54,VALID,0,VALID,91.3494,VALID,0,VALID,23.1744,VALID,94,VALID,0.282031,
2010-02-23, 00:24:04,VALID,1002.52,VALID,0,VALID,91.2808,VALID,0,VALID,23.1549,VALID,101,VALID,0.670313,
2010-02-23, 00:25:04,VALID,1002.5,VALID,0,VALID,91.2274,VALID,0,VALID,23.1354,VALID,102,VALID,0.475391,
2010-02-23, 00:26:04,VALID,1002.48,VALID,0,VALID,91.1968,VALID,0,VALID,23.0769,VALID,102,VALID,0,
2010-02-23, 00:27:04,VALID,1002.48,VALID,0,VALID,91.3342,VALID,0,VALID,23.0981,VALID,102,VALID,0,
2010-02-23, 00:28:04,VALID,1002.46,VALID,0,VALID,91.3571,VALID,0,VALID,23.1176,VALID,102,VALID,0,
2010-02-23, 00:29:04,VALID,1002.45,VALID,0,VALID,91.2884,VALID,0,VALID,23.0769,VALID,102,VALID,0,
2010-02-23, 00:30:04,VALID,1002.43,VALID,0,VALID,91.4105,VALID,0,VALID,23.0573,VALID,102,VALID,0,
2010-02-23, 00:31:04,VALID,1002.43,VALID,0,VALID,91.3418,VALID,0,VALID,23.0573,VALID,102,VALID,0,
2010-02-23, 00:32:04,VALID,1002.38,VALID,0,VALID,91.4028,VALID,0,VALID,23.0573,VALID,102,VALID,0,
2010-02-23, 00:33:04,VALID,1002.38,VALID,0,VALID,91.3876,VALID,0,VALID,23.0378,VALID,101,VALID,0,
2010-02-23, 00:34:04,VALID,1002.35,VALID,0,VALID,91.3876,VALID,0,VALID,23.0396,VALID,101,VALID,0,
2010-02-23, 00:35:04,VALID,1002.36,VALID,0,VALID,91.4028,VALID,0,VALID,23.0183,VALID,92,VALID,0.478125,
2010-02-23, 00:36:04,VALID,1002.35,VALID,0,VALID,91.4944,VALID,0,VALID,23.0183,VALID,90,VALID,0.626562,
2010-02-23, 00:37:04,VALID,1002.36,VALID,0,VALID,91.4257,VALID,0,VALID,22.9988,VALID,90,VALID,0.474609,
2010-02-23, 00:38:04,VALID,1002.34,VALID,0,VALID,91.4028,VALID,0,VALID,22.9988,VALID,90,VALID,0.6625,
2010-02-23, 00:39:04,VALID,1002.33,VALID,0,VALID,91.4105,VALID,0,VALID,22.9776,VALID,90,VALID,0.418359,
2010-02-23, 00:40:04,VALID,1002.36,VALID,0,VALID,91.3876,VALID,0,VALID,22.9988,VALID,90,VALID,0,
2010-02-23, 00:41:04,VALID,1002.32,VALID,0,VALID,91.3494,VALID,0,VALID,22.9988,VALID,90,VALID,0,
2010-02-23, 00:42:04,VALID,1002.32,VALID,0,VALID,91.3876,VALID,0,VALID,22.9793,VALID,90,VALID,0,
2010-02-23, 00:43:04,VALID,1002.34,VALID,0,VALID,91.38,VALID,0,VALID,22.9988,VALID,90,VALID,0,
2010-02-23, 00:44:04,VALID,1002.32,VALID,0,VALID,91.4486,VALID,0,VALID,22.9793,VALID,108,VALID,0.869922,
2010-02-23, 00:45:04,VALID,1002.33,VALID,0,VALID,91.441,VALID,0,VALID,23.0201,VALID,111,VALID,0.6125,
2010-02-23, 00:46:04,VALID,1002.32,VALID,0,VALID,91.3418,VALID,0,VALID,23.0183,VALID,111,VALID,0.690234,
2010-02-23, 00:47:04,VALID,1002.32,VALID,0,VALID,91.3647,VALID,0,VALID,23.0183,VALID,101,VALID,0.683203,
2010-02-23, 00:48:04,VALID,1002.33,VALID,0,VALID,91.3266,VALID,0,VALID,22.9988,VALID,101,VALID,0.581641,
2010-02-23, 00:49:04,VALID,1002.27,VALID,0,VALID,91.2655,VALID,0,VALID,22.9988,VALID,101,VALID,0.490234,
2010-02-23, 00:50:04,VALID,1002.26,VALID,0,VALID,91.1968,VALID,0,VALID,22.9988,VALID,101,VALID,0.534375,
2010-02-23, 00:51:04,VALID,1002.27,VALID,0,VALID,91.2045,VALID,0,VALID,22.9988,VALID,101,VALID,0.446094,
2010-02-23, 00:52:04,VALID,1002.27,VALID,0,VALID,91.1663,VALID,0,VALID,22.9793,VALID,101,VALID,0.529297,
2010-02-23, 00:53:04,VALID,1002.28,VALID,0,VALID,91.2503,VALID,0,VALID,22.9793,VALID,101,VALID,0.496484,
2010-02-23, 00:54:04,VALID,1002.27,VALID,0,VALID,91.1434,VALID,0,VALID,22.9793,VALID,101,VALID,0.626953,
2010-02-23, 00:55:04,VALID,1002.26,VALID,0,VALID,91.0137,VALID,0,VALID,22.9598,VALID,101,VALID,0.332422,
2010-02-23, 00:56:04,VALID,1002.24,VALID,0,VALID,91.0214,VALID,0,VALID,22.9208,VALID,101,VALID,0.272656,
2010-02-23, 00:57:04,VALID,1002.24,VALID,0,VALID,90.9756,VALID,0,VALID,22.9208,VALID,101,VALID,0,
2010-02-23, 00:58:04,VALID,1002.23,VALID,0,VALID,91.0061,VALID,0,VALID,22.8818,VALID,101,VALID,0,
2010-02-23, 00:59:04,VALID,1002.21,VALID,0,VALID,91.0137,VALID,0,VALID,22.8818,VALID,101,VALID,0,
2010-02-23, 01:00:04,VALID,1002.21,VALID,0,VALID,91.0214,VALID,0,VALID,22.841,VALID,101,VALID,0,
2010-02-23, 01:01:04,VALID,1002.19,VALID,0,VALID,91.3037,VALID,0,VALID,22.8835,VALID,101,VALID,0,
2010-02-23, 01:02:04,VALID,1002.2,VALID,0,VALID,91.4791,VALID,0,VALID,22.9013,VALID,109,VALID,0.0449219,
2010-02-23, 01:03:04,VALID,1002.17,VALID,0,VALID,91.5097,VALID,0,VALID,22.9013,VALID,123,VALID,0.566406,
2010-02-23, 01:04:04,VALID,1002.15,VALID,0,VALID,91.3952,VALID,0,VALID,22.9208,VALID,128,VALID,0.706641,
2010-02-23, 01:05:04,VALID,1002.11,VALID,0,VALID,91.3876,VALID,0,VALID,22.9208,VALID,128,VALID,0.637891,
2010-02-23, 01:06:04,VALID,1002.13,VALID,0,VALID,91.3342,VALID,0,VALID,22.9013,VALID,128,VALID,0.672266,
2010-02-23, 01:07:04,VALID,1002.12,VALID,0,VALID,91.4028,VALID,0,VALID,22.9403,VALID,128,VALID,0.453906,
2010-02-23, 01:08:04,VALID,1002.13,VALID,0,VALID,91.3876,VALID,0,VALID,22.9403,VALID,128,VALID,0.488672,
2010-02-23, 01:09:04,VALID,1002.13,VALID,0,VALID,91.2808,VALID,0,VALID,22.9403,VALID,128,VALID,0.394141,
2010-02-23, 01:10:04,VALID,1002.11,VALID,0,VALID,91.0748,VALID,0,VALID,22.9208,VALID,128,VALID,0.0925781,
2010-02-23, 01:11:04,VALID,1002.12,VALID,0,VALID,90.968,VALID,0,VALID,22.8623,VALID,128,VALID,0,
2010-02-23, 01:12:04,VALID,1002.09,VALID,0,VALID,91.2426,VALID,0,VALID,22.8623,VALID,128,VALID,0,
2010-02-23, 01:13:04,VALID,1002.08,VALID,0,VALID,91.0061,VALID,0,VALID,22.8623,VALID,153,VALID,0.967969,
2010-02-23, 01:14:04,VALID,1002.04,VALID,0,VALID,90.8383,VALID,0,VALID,22.8232,VALID,149,VALID,0.963672,
2010-02-23, 01:15:04,VALID,1002.01,VALID,0,VALID,90.6475,VALID,0,VALID,22.8232,VALID,139,VALID,1.15,
2010-02-23, 01:16:04,VALID,1002,VALID,0,VALID,90.5636,VALID,0,VALID,22.8232,VALID,138,VALID,1.06914,
2010-02-23, 01:17:04,VALID,1001.99,VALID,0,VALID,90.4415,VALID,0,VALID,22.8427,VALID,136,VALID,1.06992,
2010-02-23, 01:18:04,VALID,1001.96,VALID,0,VALID,90.2737,VALID,0,VALID,22.8232,VALID,130,VALID,1.0375,
2010-02-23, 01:19:04,VALID,1001.97,VALID,0,VALID,90.2584,VALID,0,VALID,22.8037,VALID,129,VALID,0.982422,
2010-02-23, 01:20:04,VALID,1001.95,VALID,0,VALID,90.3042,VALID,0,VALID,22.8037,VALID,129,VALID,0.923828,
2010-02-23, 01:21:04,VALID,1001.95,VALID,0,VALID,90.1974,VALID,0,VALID,22.7842,VALID,129,VALID,0.845312,
2010-02-23, 01:22:04,VALID,1001.95,VALID,0,VALID,90.2508,VALID,0,VALID,22.7647,VALID,129,VALID,0.528516,
2010-02-23, 01:23:04,VALID,1001.94,VALID,0,VALID,90.4873,VALID,0,VALID,22.7842,VALID,129,VALID,0.418359,
2010-02-23, 01:24:04,VALID,1001.93,VALID,0,VALID,90.5102,VALID,0,VALID,22.7842,VALID,129,VALID,0.428125,
2010-02-23, 01:25:04,VALID,1001.93,VALID,0,VALID,90.6475,VALID,0,VALID,22.8037,VALID,129,VALID,0,
2010-02-23, 01:26:04,VALID,1001.9,VALID,0,VALID,90.5331,VALID,0,VALID,22.8037,VALID,129,VALID,0,
2010-02-23, 01:27:04,VALID,1001.88,VALID,0,VALID,90.4949,VALID,0,VALID,22.7842,VALID,129,VALID,0,
2010-02-23, 01:28:04,VALID,1001.87,VALID,0,VALID,90.7238,VALID,0,VALID,22.8055,VALID,127,VALID,0,
2010-02-23, 01:29:04,VALID,1001.86,VALID,0,VALID,90.7467,VALID,0,VALID,22.8037,VALID,127,VALID,0,
2010-02-23, 01:30:04,VALID,1001.86,VALID,0,VALID,90.7467,VALID,0,VALID,22.8037,VALID,127,VALID,0,
2010-02-23, 01:31:04,VALID,1001.88,VALID,0,VALID,90.7849,VALID,0,VALID,22.7842,VALID,127,VALID,0,
2010-02-23, 01:32:04,VALID,1001.85,VALID,0,VALID,90.5712,VALID,0,VALID,22.786,VALID,127,VALID,0,
2010-02-23, 01:33:04,VALID,1001.83,VALID,0,VALID,90.823,VALID,0,VALID,22.7452,VALID,127,VALID,0,
2010-02-23, 01:34:04,VALID,1001.82,VALID,0,VALID,90.9603,VALID,0,VALID,22.7452,VALID,127,VALID,0,
2010-02-23, 01:35:04,VALID,1001.83,VALID,0,VALID,91.0366,VALID,0,VALID,22.7452,VALID,127,VALID,0,
2010-02-23, 01:36:04,VALID,1001.8,VALID,0,VALID,91.09,VALID,0,VALID,22.7452,VALID,127,VALID,0,
2010-02-23, 01:37:04,VALID,1001.8,VALID,0,VALID,91.2579,VALID,0,VALID,22.7452,VALID,127,VALID,0.262891,
2010-02-23, 01:38:04,VALID,1001.8,VALID,0,VALID,91.2884,VALID,0,VALID,22.7647,VALID,127,VALID,0.644531,
2010-02-23, 01:39:04,VALID,1001.8,VALID,0,VALID,91.2426,VALID,0,VALID,22.7647,VALID,127,VALID,0.545313,
2010-02-23, 01:40:04,VALID,1001.81,VALID,0,VALID,91.2884,VALID,0,VALID,22.7842,VALID,127,VALID,0.569922,
2010-02-23, 01:41:04,VALID,1001.78,VALID,0,VALID,91.2808,VALID,0,VALID,22.8055,VALID,127,VALID,0.607031,
2010-02-23, 01:42:04,VALID,1001.79,VALID,0,VALID,91.2731,VALID,0,VALID,22.7842,VALID,127,VALID,0.713281,
2010-02-23, 01:43:04,VALID,1001.75,VALID,0,VALID,91.1892,VALID,0,VALID,22.7647,VALID,122,VALID,0.752734,
2010-02-23, 01:44:04,VALID,1001.75,VALID,0,VALID,91.0214,VALID,0,VALID,22.7452,VALID,118,VALID,0.631641,
2010-02-23, 01:45:04,VALID,1001.71,VALID,0,VALID,91.1206,VALID,0,VALID,22.7469,VALID,113,VALID,0.779297,
2010-02-23, 01:46:04,VALID,1001.72,VALID,0,VALID,91.1663,VALID,0,VALID,22.7062,VALID,112,VALID,0.606641,
2010-02-23, 01:47:04,VALID,1001.69,VALID,0,VALID,91.2426,VALID,0,VALID,22.7257,VALID,112,VALID,0.39375,
2010-02-23, 01:48:04,VALID,1001.67,VALID,0,VALID,91.174,VALID,0,VALID,22.6867,VALID,112,VALID,0.535937,
2010-02-23, 01:49:04,VALID,1001.69,VALID,0,VALID,91.1587,VALID,0,VALID,22.6867,VALID,112,VALID,0.373828,
2010-02-23, 01:50:04,VALID,1001.66,VALID,0,VALID,91.2121,VALID,0,VALID,22.6867,VALID,112,VALID,0.623828,
2010-02-23, 01:51:04,VALID,1001.63,VALID,0,VALID,91.2579,VALID,0,VALID,22.6867,VALID,113,VALID,0.774219,
2010-02-23, 01:52:04,VALID,1001.6,VALID,0,VALID,91.296,VALID,0,VALID,22.6867,VALID,113,VALID,0.648047,
2010-02-23, 01:53:04,VALID,1001.62,VALID,0,VALID,91.2884,VALID,0,VALID,22.6867,VALID,113,VALID,0.652344,
2010-02-23, 01:54:04,VALID,1001.6,VALID,0,VALID,91.2884,VALID,0,VALID,22.6867,VALID,113,VALID,0.764453,
2010-02-23, 01:55:04,VALID,1001.61,VALID,0,VALID,91.3342,VALID,0,VALID,22.6867,VALID,113,VALID,0.501172,
2010-02-23, 01:56:04,VALID,1001.58,VALID,0,VALID,91.2808,VALID,0,VALID,22.6867,VALID,113,VALID,0.591797,
2010-02-23, 01:57:04,VALID,1001.6,VALID,0,VALID,91.2808,VALID,0,VALID,22.6867,VALID,113,VALID,0.4625,
2010-02-23, 01:58:04,VALID,1001.61,VALID,0,VALID,91.4028,VALID,0,VALID,22.6867,VALID,113,VALID,0.501953,
2010-02-23, 01:59:04,VALID,1001.58,VALID,0,VALID,91.4334,VALID,0,VALID,22.6867,VALID,113,VALID,0.447656,
2010-02-23, 02:00:04,VALID,1001.58,VALID,0,VALID,91.4639,VALID,0,VALID,22.7062,VALID,99,VALID,0.382422,
2010-02-23, 02:01:04,VALID,1001.63,VALID,0,VALID,91.3342,VALID,0,VALID,22.6867,VALID,99,VALID,0.534375,
2010-02-23, 02:02:04,VALID,1001.58,VALID,0,VALID,91.3494,VALID,0,VALID,22.6477,VALID,97,VALID,0.560938,
2010-02-23, 02:03:04,VALID,1001.61,VALID,0,VALID,91.2884,VALID,0,VALID,22.6477,VALID,97,VALID,0,
2010-02-23, 02:04:04,VALID,1001.58,VALID,0,VALID,91.3952,VALID,0,VALID,22.6282,VALID,97,VALID,0,
2010-02-23, 02:05:04,VALID,1001.55,VALID,0,VALID,91.3647,VALID,0,VALID,22.6069,VALID,97,VALID,0,
2010-02-23, 02:06:04,VALID,1001.57,VALID,0,VALID,91.3037,VALID,0,VALID,22.6087,VALID,97,VALID,0,
2010-02-23, 02:07:04,VALID,1001.57,VALID,0,VALID,91.4791,VALID,0.112286,VALID,22.5679,VALID,97,VALID,0,
2010-02-23, 02:08:04,VALID,1001.55,VALID,0,VALID,91.6241,VALID,0,VALID,22.5892,VALID,97,VALID,0.255469,
2010-02-23, 02:09:04,VALID,1001.55,VALID,0,VALID,91.6928,VALID,0,VALID,22.6494,VALID,86,VALID,0.5,
2010-02-23, 02:10:04,VALID,1001.51,VALID,0,VALID,91.5631,VALID,0,VALID,22.6282,VALID,86,VALID,0.321875,
2010-02-23, 02:11:04,VALID,1001.54,VALID,0,VALID,91.5631,VALID,0,VALID,22.6282,VALID,86,VALID,0.301953,
2010-02-23, 02:12:04,VALID,1001.51,VALID,0,VALID,91.5631,VALID,0,VALID,22.6282,VALID,86,VALID,0,
2010-02-23, 02:13:04,VALID,1001.51,VALID,0,VALID,91.5402,VALID,0,VALID,22.6087,VALID,86,VALID,0,
2010-02-23, 02:14:04,VALID,1001.55,VALID,0,VALID,91.5554,VALID,0,VALID,22.5892,VALID,86,VALID,0,
2010-02-23, 02:15:04,VALID,1001.52,VALID,0,VALID,91.5707,VALID,0,VALID,22.5696,VALID,86,VALID,0,
2010-02-23, 02:16:04,VALID,1001.52,VALID,0,VALID,91.5478,VALID,0,VALID,22.5501,VALID,86,VALID,0,
2010-02-23, 02:17:04,VALID,1001.54,VALID,0,VALID,91.708,VALID,0,VALID,22.5501,VALID,86,VALID,0,
2010-02-23, 02:18:04,VALID,1001.52,VALID,0,VALID,91.7004,VALID,0,VALID,22.5909,VALID,86,VALID,0,
2010-02-23, 02:19:04,VALID,1001.49,VALID,0,VALID,91.5402,VALID,0,VALID,22.5714,VALID,90,VALID,0.520312,
2010-02-23, 02:20:04,VALID,1001.46,VALID,0,VALID,91.7385,VALID,0,VALID,22.5519,VALID,122,VALID,0.580859,
2010-02-23, 02:21:04,VALID,1001.48,VALID,0,VALID,92.0132,VALID,0,VALID,22.5909,VALID,122,VALID,0.612109,
2010-02-23, 02:22:04,VALID,1001.43,VALID,0,VALID,92.0132,VALID,0,VALID,22.6087,VALID,122,VALID,0.541016,
2010-02-23, 02:23:04,VALID,1001.44,VALID,0,VALID,92.0285,VALID,0,VALID,22.6672,VALID,122,VALID,0.566016,
2010-02-23, 02:24:04,VALID,1001.41,VALID,0,VALID,91.9903,VALID,0,VALID,22.6867,VALID,122,VALID,0.557813,
2010-02-23, 02:25:04,VALID,1001.4,VALID,0,VALID,91.8759,VALID,0,VALID,22.7079,VALID,122,VALID,0.610156,
2010-02-23, 02:26:04,VALID,1001.37,VALID,0,VALID,91.7996,VALID,0,VALID,22.6867,VALID,122,VALID,0.610937,
2010-02-23, 02:27:04,VALID,1001.33,VALID,0,VALID,91.7614,VALID,0,VALID,22.7079,VALID,128,VALID,0.727344,
2010-02-23, 02:28:04,VALID,1001.31,VALID,0,VALID,91.7462,VALID,0,VALID,22.6867,VALID,128,VALID,0.699609,
2010-02-23, 02:29:04,VALID,1001.3,VALID,0,VALID,91.7538,VALID,0,VALID,22.6884,VALID,128,VALID,0.417969,
2010-02-23, 02:30:04,VALID,1001.29,VALID,0,VALID,91.7157,VALID,0,VALID,22.7062,VALID,133,VALID,0.673437,
2010-02-23, 02:31:04,VALID,1001.29,VALID,0,VALID,91.4715,VALID,0,VALID,22.6672,VALID,138,VALID,0.587109,
2010-02-23, 02:32:04,VALID,1001.27,VALID,0,VALID,91.4791,VALID,0,VALID,22.6477,VALID,138,VALID,0.867578,
2010-02-23, 02:33:04,VALID,1001.24,VALID,0,VALID,91.4563,VALID,0,VALID,22.6477,VALID,136,VALID,1.07656,
2010-02-23, 02:34:04,VALID,1001.25,VALID,0,VALID,91.3266,VALID,0,VALID,22.6282,VALID,133,VALID,0.807422,
2010-02-23, 02:35:04,VALID,1001.2,VALID,0,VALID,91.2426,VALID,0,VALID,22.6087,VALID,133,VALID,0.888672,
2010-02-23, 02:36:04,VALID,1001.21,VALID,0,VALID,91.1968,VALID,0,VALID,22.5892,VALID,133,VALID,0.857031,
2010-02-23, 02:37:04,VALID,1001.2,VALID,0,VALID,91.1434,VALID,0,VALID,22.5714,VALID,133,VALID,0.610937,
2010-02-23, 02:38:04,VALID,1001.21,VALID,0,VALID,91.1282,VALID,0,VALID,22.5306,VALID,133,VALID,0.434375,
2010-02-23, 02:39:04,VALID,1001.23,VALID,0,VALID,91.1663,VALID,0,VALID,22.5111,VALID,133,VALID,0.271875,
2010-02-23, 02:40:04,VALID,1001.23,VALID,0,VALID,91.174,VALID,0,VALID,22.4916,VALID,133,VALID,0,
2010-02-23, 02:41:04,VALID,1001.22,VALID,0,VALID,91.2503,VALID,0,VALID,22.4721,VALID,133,VALID,0,
2010-02-23, 02:42:04,VALID,1001.24,VALID,0,VALID,91.3037,VALID,0,VALID,22.4721,VALID,133,VALID,0,
2010-02-23, 02:43:04,VALID,1001.23,VALID,0,VALID,91.4791,VALID,0,VALID,22.4933,VALID,133,VALID,0,
2010-02-23, 02:44:04,VALID,1001.19,VALID,0,VALID,91.4791,VALID,0,VALID,22.4721,VALID,133,VALID,0,
2010-02-23, 02:45:04,VALID,1001.19,VALID,0,VALID,91.5097,VALID,0,VALID,22.4916,VALID,133,VALID,0,
2010-02-23, 02:46:04,VALID,1001.2,VALID,0,VALID,91.5402,VALID,0,VALID,22.4721,VALID,133,VALID,0,
2010-02-23, 02:47:04,VALID,1001.19,VALID,0,VALID,91.6241,VALID,0,VALID,22.4916,VALID,133,VALID,0,
2010-02-23, 02:48:04,VALID,1001.21,VALID,0,VALID,91.6546,VALID,0,VALID,22.5111,VALID,133,VALID,0,
2010-02-23, 02:49:04,VALID,1001.19,VALID,0,VALID,91.7538,VALID,0,VALID,22.5323,VALID,133,VALID,0.183203,
2010-02-23, 02:50:04,VALID,1001.19,VALID,0,VALID,91.6394,VALID,0,VALID,22.5306,VALID,128,VALID,0.802734,
2010-02-23, 02:51:04,VALID,1001.21,VALID,0,VALID,91.4181,VALID,0,VALID,22.5323,VALID,128,VALID,0.505859,
2010-02-23, 02:52:04,VALID,1001.21,VALID,0,VALID,91.5783,VALID,0,VALID,22.4916,VALID,131,VALID,0.672266,
2010-02-23, 02:53:04,VALID,1001.23,VALID,0,VALID,91.4639,VALID,0,VALID,22.4916,VALID,139,VALID,1.06523,
2010-02-23, 02:54:04,VALID,1001.23,VALID,0,VALID,91.3647,VALID,0,VALID,22.4916,VALID,136,VALID,0.910547,
2010-02-23, 02:55:04,VALID,1001.23,VALID,0,VALID,91.2808,VALID,0,VALID,22.4916,VALID,135,VALID,0.957031,
2010-02-23, 02:56:04,VALID,1001.22,VALID,0,VALID,91.3418,VALID,0,VALID,22.5323,VALID,141,VALID,0.862109,
2010-02-23, 02:57:04,VALID,1001.24,VALID,0,VALID,91.3571,VALID,0,VALID,22.5111,VALID,143,VALID,0.773828,
2010-02-23, 02:58:04,VALID,1001.24,VALID,0,VALID,91.2579,VALID,0,VALID,22.5714,VALID,142,VALID,0.476563,
2010-02-23, 02:59:04,VALID,1001.26,VALID,0,VALID,91.1587,VALID,0,VALID,22.5501,VALID,142,VALID,0.0339844,
2010-02-23, 03:00:04,VALID,1001.28,VALID,0,VALID,91.1129,VALID,0,VALID,22.5501,VALID,142,VALID,0,
2010-02-23, 03:01:04,VALID,1001.29,VALID,0,VALID,90.9832,VALID,0,VALID,22.5501,VALID,142,VALID,0,
2010-02-23, 03:02:04,VALID,1001.3,VALID,0,VALID,90.9909,VALID,0,VALID,22.5501,VALID,142,VALID,0,
2010-02-23, 03:03:04,VALID,1001.31,VALID,0,VALID,91.0214,VALID,0,VALID,22.5306,VALID,142,VALID,0,
2010-02-23, 03:04:04,VALID,1001.32,VALID,0,VALID,91.029,VALID,0,VALID,22.5306,VALID,142,VALID,0.0113281,
2010-02-23, 03:05:04,VALID,1001.32,VALID,0,VALID,91.1206,VALID,0,VALID,22.5306,VALID,136,VALID,0.721875,
2010-02-23, 03:06:04,VALID,1001.34,VALID,0,VALID,91.2426,VALID,0,VALID,22.5696,VALID,143,VALID,1.23398,
2010-02-23, 03:07:04,VALID,1001.37,VALID,0,VALID,91.0137,VALID,0,VALID,22.5909,VALID,129,VALID,1.02266,
2010-02-23, 03:08:04,VALID,1001.37,VALID,0,VALID,90.8001,VALID,0,VALID,22.5696,VALID,130,VALID,0.750781,
2010-02-23, 03:09:04,VALID,1001.4,VALID,0,VALID,90.9298,VALID,0,VALID,22.5892,VALID,128,VALID,1.19141,
2010-02-23, 03:10:04,VALID,1001.36,VALID,0,VALID,90.762,VALID,0,VALID,22.5892,VALID,138,VALID,0.984766,
2010-02-23, 03:11:04,VALID,1001.36,VALID,0,VALID,90.678,VALID,0,VALID,22.5892,VALID,139,VALID,1.08086,
2010-02-23, 03:12:04,VALID,1001.35,VALID,0,VALID,90.7085,VALID,0,VALID,22.5892,VALID,138,VALID,0.811719,
2010-02-23, 03:13:04,VALID,1001.32,VALID,0,VALID,90.6094,VALID,0,VALID,22.5696,VALID,143,VALID,1.02852,
2010-02-23, 03:14:04,VALID,1001.32,VALID,0,VALID,90.5026,VALID,0,VALID,22.5909,VALID,138,VALID,0.853906,
2010-02-23, 03:15:04,VALID,1001.27,VALID,0,VALID,90.6933,VALID,0,VALID,22.5696,VALID,141,VALID,0.850781,
2010-02-23, 03:16:04,VALID,1001.24,VALID,0,VALID,90.6551,VALID,0,VALID,22.5501,VALID,142,VALID,0.784766,
2010-02-23, 03:17:04,VALID,1001.22,VALID,0,VALID,90.6246,VALID,0,VALID,22.5501,VALID,143,VALID,0.698047,
2010-02-23, 03:18:04,VALID,1001.2,VALID,0,VALID,90.5788,VALID,0,VALID,22.5501,VALID,155,VALID,0.747266,
2010-02-23, 03:19:04,VALID,1001.2,VALID,0,VALID,90.7314,VALID,0,VALID,22.5501,VALID,155,VALID,0.733203,
2010-02-23, 03:20:04,VALID,1001.21,VALID,0,VALID,90.7314,VALID,0,VALID,22.5696,VALID,149,VALID,0.751562,
2010-02-23, 03:21:04,VALID,1001.22,VALID,0,VALID,90.7543,VALID,0,VALID,22.5501,VALID,143,VALID,0.766016,
2010-02-23, 03:22:04,VALID,1001.2,VALID,0,VALID,90.6017,VALID,0,VALID,22.5696,VALID,141,VALID,0.898047,
2010-02-23, 03:23:04,VALID,1001.24,VALID,0,VALID,90.7085,VALID,0,VALID,22.5696,VALID,135,VALID,0.952734,
2010-02-23, 03:24:04,VALID,1001.23,VALID,0,VALID,90.7772,VALID,0,VALID,22.5874,VALID,130,VALID,0.896875,
2010-02-23, 03:25:04,VALID,1001.22,VALID,0,VALID,90.6399,VALID,0,VALID,22.6087,VALID,122,VALID,0.901563,
2010-02-23, 03:26:04,VALID,1001.19,VALID,0,VALID,90.4949,VALID,0,VALID,22.6087,VALID,122,VALID,0.823438,
2010-02-23, 03:27:04,VALID,1001.17,VALID,0,VALID,90.4034,VALID,0,VALID,22.5892,VALID,122,VALID,0.810156,
2010-02-23, 03:28:04,VALID,1001.18,VALID,0,VALID,90.4797,VALID,0,VALID,22.5696,VALID,122,VALID,0.699609,
2010-02-23, 03:29:04,VALID,1001.15,VALID,0,VALID,90.4568,VALID,0,VALID,22.5696,VALID,122,VALID,0.550781,
2010-02-23, 03:30:04,VALID,1001.14,VALID,0,VALID,90.4873,VALID,0,VALID,22.5501,VALID,122,VALID,0.515234,
2010-02-23, 03:31:04,VALID,1001.12,VALID,0,VALID,90.556,VALID,0,VALID,22.5696,VALID,137,VALID,0.738281,
2010-02-23, 03:32:04,VALID,1001.13,VALID,0,VALID,90.5407,VALID,0,VALID,22.5501,VALID,138,VALID,0.712109,
2010-02-23, 03:33:04,VALID,1001.13,VALID,0,VALID,90.4339,VALID,0,VALID,22.5306,VALID,138,VALID,0.843359,
2010-02-23, 03:34:04,VALID,1001.13,VALID,0,VALID,90.3652,VALID,0,VALID,22.5323,VALID,139,VALID,0.61875,
2010-02-23, 03:35:04,VALID,1001.14,VALID,0,VALID,90.35,VALID,0,VALID,22.5111,VALID,139,VALID,0.732031,
2010-02-23, 03:36:04,VALID,1001.17,VALID,0,VALID,90.7238,VALID,0,VALID,22.5306,VALID,140,VALID,0.696094,
2010-02-23, 03:37:04,VALID,1001.17,VALID,0,VALID,90.7391,VALID,0,VALID,22.5501,VALID,154,VALID,1.04336,
2010-02-23, 03:38:04,VALID,1001.17,VALID,0,VALID,90.7391,VALID,0,VALID,22.5892,VALID,179,VALID,1.17109,
2010-02-23, 03:39:04,VALID,1001.16,VALID,0,VALID,90.8688,VALID,0,VALID,22.6689,VALID,175,VALID,1.03125,
2010-02-23, 03:40:04,VALID,1001.15,VALID,0,VALID,90.7391,VALID,0,VALID,22.7062,VALID,171,VALID,1.1207,
2010-02-23, 03:41:04,VALID,1001.15,VALID,0,VALID,90.6094,VALID,0,VALID,22.7452,VALID,182,VALID,1.03516,
2010-02-23, 03:42:04,VALID,1001.17,VALID,0,VALID,90.6246,VALID,0,VALID,22.7842,VALID,183,VALID,0.651563,
2010-02-23, 03:43:04,VALID,1001.16,VALID,0,VALID,90.4415,VALID,0,VALID,22.8037,VALID,180,VALID,0.232422,
2010-02-23, 03:44:04,VALID,1001.16,VALID,0,VALID,90.4949,VALID,0,VALID,22.8232,VALID,187,VALID,0.565234,
2010-02-23, 03:45:04,VALID,1001.19,VALID,0,VALID,90.411,VALID,0,VALID,22.8232,VALID,187,VALID,0,
2010-02-23, 03:46:04,VALID,1001.2,VALID,0,VALID,89.8922,VALID,0,VALID,22.7842,VALID,187,VALID,0,
2010-02-23, 03:47:04,VALID,1001.17,VALID,0,VALID,89.6862,VALID,0,VALID,22.7062,VALID,187,VALID,0,
2010-02-23, 03:48:04,VALID,1001.19,VALID,0,VALID,89.7014,VALID,0,VALID,22.6087,VALID,187,VALID,0,
2010-02-23, 03:49:04,VALID,1001.2,VALID,0,VALID,89.9761,VALID,0,VALID,22.5501,VALID,187,VALID,0,